Regional Weather Roundup
Issued by NWS Green Bay, WI

Home | Current Version | Previous Version | Graphics & Text | Print | Product List | Glossary Off
Versions: 1 2 3 4 5 6 7 8 9 10 11 12 13 14 15 16 17 18 19 20 21 22 23 24 25 26 27 28 29 30 31 32 33 34 35 36 37 38 39 40 41 42 43 44 45 46 47 48 49 50

000
ASUS43 KGRB 222311
RWRGRB

NORTH-CENTRAL AND NORTHEAST WISCONSIN REGIONAL WEATHER ROUNDUP
NATIONAL WEATHER SERVICE GREEN BAY WI
600 PM CDT FRI MAY 22 2015

WIZ005-009-010>012-018-019-230000-
NORTH CENTRAL WISCONSIN

CITY           SKY/WX    TMP DP  RH WIND       PRES   REMARKS
IRONWOOD       SUNNY     66  28  24 W6        30.17F
MANITOWISH WTR SUNNY     65  27  23 NW5G10    30.21S
ARBOR VITAE    SUNNY     65  24  21 N6        30.21S
EAGLE RIVER    SUNNY     66  18  15 NW9       30.21S
LAND O LAKES   SUNNY     66  16  14 NW6       30.22S
RHINELANDER    SUNNY     67  26  21 MISG      30.21S
PHILLIPS       SUNNY     68  31  25 NW5       30.19F
ANTIGO         SUNNY     66  32  27 NW8       30.21S
TOMAHAWK       SUNNY     68  27  21 NW8       30.21S
MERRILL        SUNNY     69  32  25 W5        30.20F
$$

WIZ013-073-230000-
NORTHEAST WISCONSIN

CITY           SKY/WX    TMP DP  RH WIND       PRES   REMARKS
IRON MOUNTAIN  SUNNY     68  19  15 CALM      30.18S
MARINETTE      SUNNY     54  28  37 S13       30.24S
OCONTO         SUNNY     59  32  36 SE10G17   30.22S
$$

WIZ017-030-035>037-045-230000-
CENTRAL WISCONSIN

CITY           SKY/WX    TMP DP  RH WIND       PRES   REMARKS
MEDFORD        SUNNY     67  33  28 W6        30.21S
WAUSAU         SUNNY     69  31  24 W9        30.19F
MOSINEE        SUNNY     66  36  32 SW10      30.22
MARSHFIELD     SUNNY     70  32  24 N8        30.20F
WISC RAPIDS    SUNNY     72  30  21 N7        30.21F
STEVENS POINT  SUNNY     67  33  28 W6        30.22S
WAUPACA        SUNNY     72  28  19 SW6       30.21S
SHAWANO        SUNNY     71  31  22 W6        30.20S
CLINTONVILLE   SUNNY     70  28  21 NW8       30.20S
$$

WIZ038-039-048-051-230000-
FOX VALLEY

CITY           SKY/WX    TMP DP  RH WIND       PRES   REMARKS
NWS GREEN BAY  SUNNY     64  33  31 SE13G23   30.22R
APPLETON       MOSUNNY   66  34  30 S10       30.22S
OSHKOSH        SUNNY     66  36  32 E7        30.21F
FOND DU LAC    SUNNY     69  30  23 SW5       30.21F
$$

WIZ022-050-052-230000-
EAST CENTRAL WISCONSIN

CITY           SKY/WX    TMP DP  RH WIND       PRES   REMARKS
STURGEON BAY   SUNNY     54  25  32 SE13      30.27F
MANITOWOC      SUNNY     52  28  39 S10       30.27F
SHEBOYGAN      SUNNY     56  24  29 SE9       30.27S
$$

LMZ563-521-522-541>543-230000-
LAKESHORE

STATION/POSITION TIME  TEMP    WIND        PRES    VSBY  WAVE
                       AIR SEA DIR/SP/G                  HT/PER
                 (UTC) (F)     (DEG/KT/KT) (MB)    (MI)  (FT/S)
SHEBOYGAN LKSHOR 2300          120/ 10/ 11 1025.6F
KEWAUNEE LKSHORE 2200   44     170/  8/  9 1024.2F
NORTHPORT PIER   2200   48     140/ 10/ 14 1024.7
N MID LAKE BUOY  2250   42 36  180/  8/ 10 1025.5F         0
CHAMBERS ISLAND  2200   54     130/  8/ 14 1024.0S
MENOMINEE LKSHOR 2200   52     130/ 12/ 15 1024.5R
$$



USA.gov is the U.S. government's official web portal to all federal, state and local government web resources and services.